Location: Castiglione Fibocchi
(43.5333°N, 11.7667°E)
Time: 10:02:24
(UTC+00:00)

Meteor 2-21 Rocket - Pass Details

Date: 15 August 2020
Orbit: 936 x 968 km, 82.6° (Epoch: 18 September)

Event Time Altitude Azimuth Distance (km) Brightness Sun altitude
Rises 01:36:26 0° 352° (N) 3,607 8.1 -24.3°
Reaches altitude 10° 01:38:56 10° 353° (N) 2,661 7.4 -24.1°
Maximum altitude 01:45:01 81° 82° (E) 959 4.4 -23.4°
Enters shadow 01:48:17 29° 166° (SSE) 1,646 5.4 -23.0°
